COSMOS 1375 DEB

Satellite information

Favourite Embed

Satellite Type and Status

DEBRISIN ORBIT

Key statistics

Satellite COSMOS 1375 DEB at a glance.

Uptime

15792

Days in orbit

Revolutions

≈ 14.0

Per day

Orbit

LEO

Low Earth Orbit

Inclination

65.8

Latest

Satellite identification and parameters

Extended collection of information and parameters for COSMOS 1375 DEB.

Object identification

Identified? True

Debris? True

Object name: COSMOS 1375 DEB

International designator: 1982-055AL

Object number (NORAD): 17794

Object ID (CCSDS): 17794

Country: COMMONWEALTH OF INDEPENDENT STATES (CIS)

Current information (Y/N): Y

RCS size: SMALL

Orbital parameters

Period: 102.812 minutes

Inclination: 65.8166 deg

SMA: 7269.803 km

Apoapsis: 915.183 km

Periapsis: 868.152 km

RAAN: 296.7421 deg

Eccentricy: 0.0032347

Argument of periapsis: 107.2603 deg

Mean anomaly: 253.2016 deg

Mean motion: 14.00615215 rev/day

Mean motion (dot): 0.00001507 rev/day2

B* drag term: 0.0010651397 1/REarth

Two-line elements (TLE)

Creation date: Aug. 31, 2025, 2:26 a.m.

Reference frame: TEME

Reference center: EARTH

Epoch: Aug. 30, 2025, noon UTC

TLE line 0: 0 COSMOS 1375 DEB

TLE line 1: 1 17794U 82055AL 25242.50068034 .00001507 00000-0 10651-2 0 9997

TLE line 2: 2 17794 65.8166 296.7421 0032347 107.2603 253.2016 14.00615215 11513

Live tracking on map

Real-time ground track for satellite COSMOS 1375 DEB.

In-orbit conjunctions

A list of the most updated potential collisions computed for object COSMOS 1375 DEB.

Target Orbit TCA Probability of collision Miss distance Type
METEOR 1-14 LEO 2025-07-05 06:25:23 0.001436476 115.0 (m) PAYLOAD
IRS 1B SSO 2024-09-29 21:30:55 0.0001577137 531.0 (m) PAYLOAD
FENGYUN 1C DEB SSO 2024-09-26 15:52:30 0.0004379409 973.0 (m) DEBRIS
GGSE 4 LEO 2024-07-06 23:20:38 0.002308427 172.0 (m) PAYLOAD

Associated space launch

ASAT target satellite

COSMOS 1375 DEB was lifted into orbit during the mission ‘Kosmos-3M | DS-P1-M 16’, on board a Kosmos-3M space rocket.

The launch took place on June 6, 1982, 5:10 p.m. from 132/2.

For more information about the launch, click the button.

Launch to space Kosmos-3M | DS-P1-M 16
Kosmos-3M | DS-P1-M 16

Agency: N/A

Status: Launch Successful

Launch date: June 6, 1982, 5:10 p.m. UTC

Rocket: Kosmos-3M

Launch pad: 132/2

Location: Plesetsk Cosmodrome, Russian Federation

...

Latest news about this satellite

There are no fresh news available about this satellite. Check back as we update our databases every day.


Newsletter sign-up

Weekly statistics, charts and insights to help you stay on top of the space industry.